Location: Unspecified
(44.4377°N, 88.0525°W)
Time: 23:24:00
(UTC-05:00)

Cosmos 1674 - Visible Passes

Search period start: 01 October 2014 00:00
Search period end: 11 October 2014 00:00
Orbit: 515 x 541 km, 82.5° (Epoch: 01 October)

Date Brightness Start Highest point End Pass type
(mag) Time Alt. Az. Time Alt. Az. Time Alt. Az.
01 Oct 3.2 20:11:55 10° NNW 20:15:51 65° W 20:19:47 10° S visible
02 Oct 3.0 20:00:46 10° NNW 20:04:44 71° W 20:08:40 10° S visible
03 Oct 2.9 19:49:36 10° N 19:53:35 78° W 19:57:33 10° S visible
04 Oct 2.8 19:38:27 10° N 19:42:26 86° W 19:46:24 10° S visible
05 Oct 2.7 19:27:17 10° N 19:31:17 87° E 19:35:15 10° S visible
06 Oct 2.7 19:16:07 10° N 19:20:07 80° E 19:24:04 10° S visible
07 Oct 2.7 19:04:56 10° N 19:08:56 73° E 19:12:52 10° SSE visible
08 Oct 2.7 18:53:46 10° N 18:57:44 66° E 19:01:40 10° SSE visible
09 Oct 2.8 18:42:35 10° N 18:46:32 60° E 18:50:26 10° SSE visible
09 Oct 6.4 20:20:58 10° WNW 20:21:55 11° W 20:22:52 10° W visible
10 Oct 6.3 20:09:18 10° WNW 20:10:45 12° W 20:12:12 10° WSW visible
